Regional Weather Roundup
Issued by NWS Kansas City/Pleasant Hill, MO

Home | Current Version | Previous Version | Text Only | Print | Product List | Glossary On
Versions: 1 2 3 4 5 6 7 8 9 10 11 12 13 14 15 16 17 18 19 20 21 22 23 24 25 26 27 28 29 30 31 32 33 34 35 36 37 38 39 40 41 42 43 44 45 46 47 48 49 50
000
ASUS43 KEAX 222010
RWREAX

WEATHER ROUNDUP FOR EASTERN KANSAS AND NORTHWEST MISSOURI
NATIONAL WEATHER SERVICE KANSAS CITY/PLEASANT HILL MO
300 PM CDT THU JUN 22 2017

KSZ040-057-103>105-MOZ028-029-037-043-222100-
...KANSAS CITY METROPOLITAN AREA...

CITY           SKY/WX    TMP DP  RH WIND       PRES   REMARKS
K.C. INTL      PTSUNNY   86  73  65 S15       29.70F HX  93
K.C. DOWNTOWN  PTSUNNY   87  72  60 S13G20    29.68F HX  93
LEES SUMMIT    PTSUNNY   84  71  65 S18G26    29.72F
OLATHE - IXD   PTSUNNY   84  71  65 S15       29.72S
OLATHE - OJC   PTSUNNY   81  71  71 S14       29.71F
LAWRENCE       MOSUNNY   88  71  57 SE14      29.68F HX  94

$$

MOZ001>008-011>017-020>025-030>033-038>040-044>046-053-054-222100-
...NORTHERN AND CENTRAL MISSOURI...

CITY           SKY/WX    TMP DP  RH WIND       PRES   REMARKS
ST. JOSEPH     MOSUNNY   89  71  55 S16G22    29.67F HX  95
MOSBY          CLOUDY    84  68  58 S9G16     29.70F
WARRENSBURG    CLOUDY    82  70  65 S12G17    29.72F
WHITEMAN AFB   PTSUNNY   83  76  78 S14       29.71F HX  92
CLINTON        CLOUDY    84  73  70 S7        29.73F HX  91
SEDALIA        CLOUDY    83  74  74 S9        29.75F
WARSAW         NOT AVBL
CHILLICOTHE      N/A     84  73  69 S7        29.72F HX  90
KIRKSVILLE     CLOUDY    83  71  67 S12       29.76S

$$

MOZ041-047>049-056>058-063>065-088>090-097-222100-
...EASTERN AND SOUTHERN MISSOURI...

CITY           SKY/WX    TMP DP  RH WIND       PRES   REMARKS
ST. LOUIS INTL PTSUNNY   84  71  65 S14       29.79F
SPIRIT OF STL  CLOUDY    82  73  74 SE7       29.76F
COLUMBIA       CLOUDY    84  74  71 S13       29.75F HX  91
JEFFERSON CITY PTSUNNY   86  72  62 S10       29.73F HX  92
ROLLA          CLOUDY    82  72  71 S12       29.77S
OSAGE BEACH    CLOUDY    84  73  69 S12       29.75F HX  90
SPRINGFIELD    CLOUDY    84  73  69 SE12G18   29.75F HX  90
BRANSON        PTSUNNY   81  72  74 SE8       29.78F
JOPLIN         CLOUDY    85  74  69 S8        29.73F HX  92
WEST PLAINS    CLOUDY    82  70  66 S8G17     29.80F

$$

IAZ060-094-KSZ022-034>040-054-083-096-NEZ052-066-093-222100-
...KANSAS...SOUTHEAST NEBRASKA AND IOWA...

CITY           SKY/WX    TMP DP  RH WIND       PRES   REMARKS
TOPEKA         SUNNY     88  71  57 S15       29.67F HX  94
MANHATTAN      SUNNY     94  67  41 S15G23    29.64F HX  97
EMPORIA        SUNNY     86  70  58 S15G22    29.69F HX  90
CHANUTE        PTSUNNY   85  70  60 S14G21    29.71F
WICHITA        MOSUNNY   91  66  43 S18       29.66F HX  93
OMAHA          PTSUNNY   89  68  49 S12       29.62F HX  93
LINCOLN        MOSUNNY   88  68  51 SW12      29.63F HX  91
FALLS CITY     SUNNY     89  69  51 S14G23    29.65F HX  93
LAMONI         CLOUDY    81  73  76 S5        29.70F
DES MOINES     CLOUDY    85  70  60 S13       29.66F

$$




USA.gov is the U.S. government's official web portal to all federal, state and local government web resources and services.